Simultaneous Nadir Overpasses (SNOs) Predictions

Prediction of SNOs between AQUA and NPP Satellite Orbit:

Table of predicted SNOs for the next 14.0 days since TLE Epoch: 5/11/2024
Index Date (AQUA) Time (AQUA) Lat,Lon (AQUA) SZA (AQUA ) Date (NPP) Time (NPP) Lat,Lon (NPP) SZA (NPP ) Distance(km) Time Diff (sec)
1 05/11/2024 21:39:48 81.21, 137.41 70.01 05/11/2024 21:39:20 81.22, 137.32 70.04 1.55 28
2 05/11/2024 22:29:09 -81.24, -54.44 110.07 05/11/2024 22:30:03 -81.24, -54.49 110.10 0.95 54
3 05/14/2024 10:33:06 81.23, -55.56 69.35 05/14/2024 10:33:11 81.23, -55.41 69.32 2.67 5
4 05/16/2024 22:36:57 -81.23, -56.49 111.23 05/16/2024 22:36:20 -81.23, -56.52 111.20 0.64 37
5 05/16/2024 23:26:18 81.24, 111.48 68.73 05/16/2024 23:27:03 81.24, 111.34 68.72 2.49 45
6 05/19/2024 10:41:12 80.47, -68.05 69.85 05/19/2024 10:39:59 80.75, -69.18 70.08 37.52 73
7 05/19/2024 11:30:04 -81.23, 110.23 111.77 05/19/2024 11:30:12 -81.23, 110.10 111.75 2.15 8
8 05/21/2024 23:33:43 81.22, 109.22 67.76 05/21/2024 23:33:19 81.22, 109.09 67.79 2.34 24
9 05/22/2024 00:23:04 -81.24, -82.67 112.32 05/22/2024 00:24:02 -81.24, -82.65 112.36 0.33 58
10 05/24/2024 11:37:16 -81.23, 108.52 112.73 05/24/2024 11:36:26 -81.22, 108.37 112.68 2.53 50



Historial Predications of SNOs between AQUA and NPP
